Content
SEND FEEDBACK

Daily
Averages
Monthly
Summary
Philippines

QUEZON CITY, PHILIPPINES


Home > Asia > Philippines
Elevation: 46 meters     Latitude: 14 39N     Longitude: 121 03E

WEATHER
 
SELECT A DAY
Number of Records: 177,139;   Date Range: 7/1/96 - 10/24/14
 
SHARE

PRINT THIS DATA

[ ← Previous Day ]
WEATHER ALMANAC - 6 JANUARY, 2013
[ Next Day → ]
[ °F ]   °C
Weather ElementAverageHighLow
Temperature27.9 °C32.2 °C (2:00 pm)24 °C (4:00 am)
Dewpoint22.2 °C24 °C (1:00 am)20 °C (12:00 pm)
Humidity71.4 %100 % (4:00 am)40 % (2:00 pm)
Barometer1010.5 hPa1012.5 hPa (11:00 pm)1008.1 hPa (2:00 pm)
Wind Speed10.1 km/h18.5 km/h (2:00 pm)
Weather ElementAverage
Visibility10 km
Wind DirectionENE (82.8 °)

Weather ElementTotal
Precipitation---
Cooling Degree Days9.8 (Base 18.3)
Growing Degree Days18.1 (Base 10)
Averaged from 30 records on 6 January, 2013
WEATHER CONDITIONS BREAKOUT
WIND DIRECTION BREAKOUT
WEATHER BY HOUR - 6 JANUARY, 2013
[ °F ]   °C
Local TimeTemperatureDewpointHumidityBarometerVisibilityWind DirectionWind SpeedGust SpeedPrecipitationEventsConditions
1:00 AM25 °C24 °C94 %1010.2 hPa10 kmVariable5.6 km/hMostly Cloudy
2:00 AM25 °C23.9 °C91 %1010.2 hPa9.7 kmEast (100°)3.5 km/hHaze
2:00 AM25 °C24 °C94 %1010.2 hPa10 kmVariable3.7 km/hMostly Cloudy
3:00 AM25 °C24 °C94 %1009.1 hPa10 kmVariable1.9 km/hMostly Cloudy
4:00 AM24 °C24 °C100 %1009.1 hPa10 kmCalmScattered Clouds
5:00 AM24.4 °C23.9 °C95 %1009.5 hPa9.7 kmCalmHaze
5:00 AM24 °C24 °C100 %1010.2 hPa10 kmCalmScattered Clouds
6:00 AM24 °C24 °C100 %1010.2 hPa10 kmVariable3.7 km/hPartly Cloudy
7:00 AM25 °C24 °C94 %1011.2 hPa10 kmENE (70°)5.6 km/hScattered Clouds
8:00 AM26.1 °C22.8 °C77 %1011.5 hPa9.7 kmENE (70°)7.2 km/hHaze
8:00 AM26 °C23 °C83 %1011.2 hPa10 kmENE (60°)7.4 km/hScattered Clouds
9:00 AM29 °C21 °C62 %1012.2 hPa10 kmEast (90°)13 km/hScattered Clouds
10:00 AM30 °C21 °C58 %1012.2 hPa10 kmENE (70°)16.7 km/hScattered Clouds
11:00 AM30.6 °C21.1 °C47 %1011.9 hPa9.7 kmEast (90°)14.3 km/hHaze
11:00 AM31 °C21 °C55 %1011.2 hPa10 kmEast (90°)13 km/hScattered Clouds
12:00 PM32 °C20 °C49 %1010.2 hPa10 kmESE (110°)14.8 km/hPartly Cloudy
1:00 PM32 °C20 °C49 %1009.1 hPa10 kmSE (130°)16.7 km/hScattered Clouds
2:00 PM32.2 °C20.6 °C40 %1008.8 hPa9.7 kmESE (120°)18 km/hHaze
2:00 PM32 °C20 °C49 %1008.1 hPa10 kmESE (110°)18.5 km/hScattered Clouds
3:00 PM32 °C21 °C52 %1008.1 hPa10 kmESE (120°)18.5 km/hScattered Clouds
4:00 PM31 °C21 °C55 %1008.1 hPa10 kmESE (110°)18.5 km/hScattered Clouds
5:00 PM30 °C21.1 °C49 %1009.1 hPa9.7 kmESE (120°)14.3 km/hHaze
5:00 PM30 °C21 °C58 %1009.1 hPa10 kmESE (120°)14.8 km/hScattered Clouds
6:00 PM29 °C21 °C62 %1010.2 hPa10 kmESE (120°)9.3 km/hScattered Clouds
7:00 PM29 °C21 °C62 %1011.2 hPa10 kmESE (120°)9.3 km/hScattered Clouds
8:00 PM28 °C22 °C70 %1011.2 hPa10 kmESE (120°)9.3 km/hPartly Cloudy
9:00 PM27 °C22 °C74 %1012.2 hPa10 kmESE (120°)11.1 km/hPartly Cloudy
10:00 PM27 °C22 °C74 %1012.2 hPa10 kmEast (100°)5.6 km/hPartly Cloudy
11:00 PM26.7 °C23.3 °C76 %1012.5 hPa9.7 kmESE (120°)14.3 km/hHaze
11:00 PM27 °C23 °C79 %1012.2 hPa10 kmESE (120°)13 km/hMostly Cloudy
Hourly data recorded from RPLL, located 0 kilometers away from Quezon City, Philippines







STORIES FROM OUR PARTNERS